Location: Horowhenua
(40.7500°S, 175.3333°E)
Time: 05:31:36
(UTC+00:00)

CBERS-1 - Pass Details

Date: 28 January 2023
Orbit: 769 x 775 km, 98.7° (Epoch: 01 April)

Event Time Altitude Azimuth Distance (km) Brightness Sun altitude
Exits shadow 15:27:36 33° 321° (NW) 1,284 4.6 -18.3°
Maximum altitude 15:29:10 43° 279° (W) 1,100 4.4 -18.1°
Drops below altitude 10° 15:34:06 10° 208° (SSW) 2,357 6.7 -17.5°
Sets 15:36:34 0° 200° (SSW) 3,292 7.6 -17.1°
